Home   Weather   Fort-de-France   Past weeks

Flag for Martinique Past Weather in Fort-de-France, Martinique — Yesterday and Last 2 Weeks

Now
81 °F

Passing clouds.


Feels Like: 84 °F
Forecast: 70 / 82 °F
Wind: 8 mph from East

Location: Le Lamentin Airport

Current Time: Jan 22, 2017 at 10:28:16 am

Latest Report: Jan 22, 2017 at 9:30 am


Visibility: N/A

Pressure: 30.01 "Hg

Humidity: 70%

Dew Point: 70 °F

Location of Fort-de-FranceLocation

Past Weather in Fort-de-France — Graph

°F

Fort-de-France Temperature Yesterday

Maximum temperature yesterday: 84 °F (at 12:00 pm)
Minimum temperature yesterday: 66 °F (at 5:30 am)
Average temperature yesterday: 75 °F

High & Low Weather Summary for the Past Weeks

 TemperatureHumidityPressure
High84 °F (Jan 7, 9:30 am)100% (Jan 13, 7:00 am)30.07 "Hg (Jan 13, 7:00 am)
Low64 °F (Jan 13, 5:00 am)48% (Jan 11, 3:00 pm)29.86 "Hg (Jan 10, 3:00 pm)
Average77 °F76%29.96 "Hg
* Reported Jan 7 9:00 am — Jan 22 9:00 am, Fort-de-France, Weather by CustomWeather, © 2017

Note: Actual official high and low records may vary slightly from our data, if they occured in-between our weather recording intervals... More about our weather records

Advertising

Fort-de-France Weather History for the Previous 24 Hours

Scroll right to see more
 ConditionsComfort  
Time TempWeatherWind HumidityBarometerVisibility
9:00 am
Sun, Jan 22
81 °FScattered clouds.6 mph70%30.01 "HgN/A
8:30 am77 °FPassing clouds.5 mph83%30.01 "HgN/A
8:00 am73 °FMild.3 mph89%29.98 "HgN/A
7:30 am70 °FSunny.5 mph94%29.98 "Hg10 mi
7:00 am66 °FPassing clouds.3 mph100%29.95 "HgN/A
6:30 am66 °FClear.5 mph100%29.95 "Hg10 mi
6:00 am68 °FPassing clouds.5 mph94%29.92 "HgN/A
5:30 am66 °FPassing clouds.3 mph94%29.92 "HgN/A
5:00 am68 °FClear.3 mph94%29.92 "Hg10 mi
4:30 am68 °FClear.3 mph94%29.92 "Hg10 mi
4:00 am68 °FClear.5 mph94%29.92 "Hg10 mi
3:30 am68 °FClear.2 mph94%29.92 "Hg10 mi
3:00 am68 °FClear.5 mph94%29.92 "Hg10 mi
2:30 am68 °FClear.1 mph94%29.92 "Hg10 mi
2:00 am68 °FClear.3 mph94%29.92 "Hg10 mi
1:30 am70 °FClear.3 mph88%29.95 "Hg10 mi
1:00 am70 °FClear.2 mph88%29.95 "Hg10 mi
12:30 am72 °FClear.2 mph83%29.95 "Hg10 mi
12:00 am72 °FClear.2 mph88%29.95 "Hg10 mi
11:30 pm
Sat, Jan 21
72 °FClear.2 mph88%29.98 "Hg10 mi
11:00 pm72 °FClear.3 mph88%29.98 "Hg10 mi
10:30 pm72 °FClear.3 mph88%29.98 "Hg10 mi
10:00 pm72 °FPassing clouds.2 mph88%29.98 "HgN/A
9:30 pm72 °FClear.2 mph88%29.98 "Hg10 mi
9:00 pm72 °FMild.3 mph88%29.95 "HgN/A
8:30 pm73 °FMild.2 mph83%29.95 "HgN/A
8:00 pm75 °FClear.5 mph78%29.95 "Hg10 mi
7:30 pm75 °FPassing clouds.3 mph78%29.95 "HgN/A
7:00 pm77 °FClear.3 mph74%29.95 "Hg10 mi
6:30 pm77 °FClear.3 mph74%29.92 "Hg10 mi
6:00 pm77 °FPassing clouds.6 mph74%29.92 "HgN/A
5:30 pm79 °FScattered clouds.9 mph65%29.92 "HgN/A
5:00 pm81 °FPassing clouds.8 mph66%29.92 "HgN/A
4:30 pm81 °FPartly sunny.12 mph62%29.92 "HgN/A
4:00 pm82 °FScattered clouds.12 mph58%29.89 "HgN/A
3:30 pm82 °FScattered clouds.9 mph58%29.89 "HgN/A
3:00 pm82 °FPassing clouds.9 mph62%29.92 "HgN/A
2:30 pm82 °FPassing clouds.12 mph62%29.92 "HgN/A
2:00 pm81 °FPartly sunny.12 mph62%29.92 "HgN/A
1:30 pm82 °FPartly sunny.10 mph58%29.95 "HgN/A
1:00 pm84 °FPassing clouds.8 mph58%29.95 "HgN/A
12:30 pm84 °FPartly sunny.13 mph55%29.98 "HgN/A
12:00 pm84 °FScattered clouds.12 mph58%29.98 "HgN/A
11:30 am82 °FPassing clouds.10 mph58%30.01 "HgN/A
11:00 am82 °FBroken clouds.13 mph58%30.01 "HgN/A
10:30 am82 °FScattered clouds.12 mph58%30.01 "HgN/A
10:00 am82 °FPassing clouds.10 mph62%30.01 "HgN/A
Weather by CustomWeather, © 2017

See weather overviewHow to use our weather pages